Date,TemperatureHighF,TemperatureAvgF,TemperatureLowF,DewpointHighF,DewpointAvgF,DewpointLowF,HumidityHigh,HumidityAvg,HumidityLow,PressureMaxIn,PressureMinIn,WindSpeedMaxMPH,WindSpeedAvgMPH,GustSpeedMaxMPH,PrecipitationSumIn
2013-1-12,59.4,48.2,43.0,33.7,26.1,13.2,65,45,16,29.99,29.93,9,4,14,0.00
2013-1-13,58.1,45.3,38.7,34.7,24.5,10.7,67,45,24,30.05,29.96,14,5,16,0.00
2013-1-14,55.0,46.3,39.4,34.5,18.4,9.4,66,35,16,30.18,30.00,19,7,25,0.00
2013-1-15,56.7,46.8,41.4,36.4,31.5,21.3,81,57,26,30.26,30.17,10,5,11,0.00
2013-1-16,64.8,48.3,39.9,38.3,35.1,30.4,86,62,30,30.22,30.04,9,4,11,0.00
2013-1-17,68.0,53.4,44.4,40.8,34.2,26.4,80,51,22,30.05,29.93,9,5,11,0.00
2013-1-18,68.2,55.4,47.7,39.1,33.1,26.5,71,45,21,30.01,29.92,11,4,13,0.00
2013-1-19,66.2,55.0,46.2,38.0,32.3,26.1,70,44,22,30.03,29.95,11,6,13,0.00
2013-1-20,69.4,55.3,46.4,37.2,31.6,21.6,70,44,17,30.01,29.91,11,5,11,0.00
2013-1-21,74.1,54.8,45.5,40.0,36.1,29.5,74,52,20,29.96,29.87,11,6,12,0.00
2013-1-22,62.6,54.9,47.8,41.8,39.2,36.5,72,56,39,29.90,29.79,8,4,11,0.00
2013-1-23,55.9,52.8,49.3,48.5,44.6,40.7,92,75,60,29.87,29.74,11,4,15,0.12
2013-1-24,59.9,55.1,50.4,50.3,49.0,47.2,89,80,70,29.95,29.85,9,3,10,0.00
2013-1-25,67.3,57.6,51.3,53.1,50.7,48.8,92,78,57,29.93,29.78,10,4,14,0.00
2013-1-26,55.6,51.1,47.5,49.4,43.9,39.0,94,77,58,29.82,29.73,31,14,36,0.99
2013-1-27,59.4,49.8,44.6,39.8,36.7,33.1,76,61,38,29.91,29.80,18,8,22,0.00
2013-1-28,59.2,50.9,45.9,42.2,39.0,33.7,79,64,47,30.03,29.90,14,6,20,0.00
2013-1-29,62.4,52.3,46.8,45.7,41.3,38.2,78,67,41,30.09,30.00,14,4,18,0.00
2013-1-30,72.1,56.3,49.3,48.0,43.7,39.0,84,64,30,30.08,30.01,8,4,10,0.00
2013-1-31,68.7,56.5,46.2,45.5,44.3,43.0,90,65,41,30.02,29.92,9,5,11,0.00
2013-2-1,68.5,56.6,47.5,48.3,44.9,42.3,94,67,39,29.96,29.87,12,5,14,0.00
2013-2-2,60.4,51.1,47.7,48.2,46.5,44.4,94,85,64,30.04,29.95,15,6,17,0.00
2013-2-3,61.2,51.4,47.3,46.7,43.4,40.3,92,75,51,29.99,29.88,14,6,17,0.00
2013-2-4,62.4,49.5,45.0,49.1,45.2,42.5,93,85,60,29.92,29.81,14,5,17,0.00
2013-2-5,54.0,49.3,45.7,47.4,43.8,39.8,90,81,73,29.89,29.81,24,11,31,0.12
2013-2-6,62.1,50.7,44.2,45.5,43.0,38.5,90,76,43,29.93,29.87,23,8,24,0.00
2013-2-7,55.4,48.7,44.1,45.2,42.2,37.9,91,79,57,29.91,29.74,18,7,24,0.24
2013-2-8,55.8,46.3,41.9,40.6,38.9,35.9,89,77,52,29.76,29.68,11,5,14,0.06
2013-2-9,66.7,55.4,48.0,38.8,28.3,15.6,52,37,15,29.95,29.90,12,6,14,0.06
2013-2-10,68.4,52.0,43.9,42.9,38.4,28.2,82,62,26,29.99,29.89,11,4,14,0.00
2013-2-11,68.7,53.8,47.3,46.3,35.7,19.9,90,56,17,30.10,29.93,15,7,19,0.00
2013-2-12,60.8,51.3,45.3,46.6,43.5,35.4,91,76,39,30.23,30.09,12,4,14,0.00
2013-2-13,48.9,47.0,45.5,46.2,44.4,43.0,92,91,87,30.20,30.17,5,2,9,0.00
2013-2-14,77.0,58.7,46.4,51.0,44.5,40.2,93,64,28,30.11,30.02,9,4,9,0.00
2013-2-15,75.6,63.5,54.5,44.4,39.0,33.6,67,43,22,30.13,30.07,9,4,9,0.00
2013-2-16,70.0,57.4,48.9,47.8,44.8,42.5,90,65,40,30.10,29.92,12,6,12,0.00
2013-2-17,62.2,52.8,46.8,47.5,44.5,40.8,91,75,47,29.92,29.84,11,6,11,0.00
2013-2-18,50.4,47.9,46.2,44.4,40.0,36.4,89,74,65,29.90,29.83,24,13,29,0.01
2013-2-19,48.6,45.3,41.7,43.3,37.5,31.6,90,75,57,29.83,29.61,27,12,34,0.74
2013-2-20,59.5,47.0,41.2,42.6,36.1,31.8,77,66,40,29.93,29.70,17,7,21,0.00
2013-2-21,59.5,50.7,44.1,42.0,37.1,29.9,76,61,35,30.03,29.92,20,6,22,0.00
2013-2-22,63.1,53.0,48.0,46.7,41.7,35.5,86,66,37,30.11,30.03,23,7,29,0.01
2013-2-23,61.3,51.9,46.4,47.2,37.6,28.7,93,61,41,30.12,30.03,26,10,27,0.04
2013-2-24,63.5,52.9,47.3,43.5,30.8,14.8,86,46,15,30.11,30.03,22,9,23,0.04
2013-2-25,66.4,53.3,45.9,46.9,43.1,39.1,88,70,46,30.13,30.03,12,4,15,0.00
2013-2-26,64.8,53.4,45.7,42.8,36.3,19.9,85,56,19,30.08,30.00,17,6,19,0.00
2013-2-27,68.9,55.3,50.0,47.3,43.1,35.0,88,66,31,30.10,29.90,17,4,17,0.00
2013-2-28,68.2,55.4,49.3,57.5,48.6,45.9,92,79,53,30.07,29.98,13,4,14,0.01
2013-3-1,76.6,59.3,49.6,54.5,48.8,44.9,93,71,38,30.06,29.85,11,4,13,0.00
2013-3-2,72.3,57.4,50.0,50.3,48.6,47.2,90,74,45,29.87,29.70,17,6,17,0.01
2013-3-3,60.4,51.3,47.5,48.9,46.7,44.0,92,85,64,29.73,29.66,24,11,27,0.12
2013-3-4,59.9,48.7,45.3,44.4,42.9,41.1,90,81,52,29.77,29.68,25,8,27,0.04
2013-3-5,59.2,50.9,45.0,46.2,41.4,38.7,87,71,48,29.69,29.46,29,11,35,0.35
2013-3-6,57.2,51.5,45.0,47.9,42.6,39.5,90,72,52,29.69,29.47,30,9,30,1.41
2013-3-7,61.9,49.6,46.0,44.5,41.8,37.4,90,76,41,29.62,29.49,17,7,17,0.01
2013-3-8,56.8,49.6,46.2,44.6,42.0,38.7,90,75,60,29.67,29.46,32,12,35,2.94
2013-3-9,65.1,54.0,45.0,45.9,42.8,40.4,85,68,45,29.93,29.67,14,5,17,0.00
2013-3-10,52.5,49.2,48.7,46.0,44.3,43.9,86,83,73,29.93,29.91,6,3,9,0.00
2013-3-11,69.1,53.9,48.7,48.3,44.7,38.1,93,74,39,29.93,29.80,15,6,15,0.00
2013-3-12,72.0,54.5,47.3,52.2,47.9,45.4,94,80,46,29.85,29.76,15,6,15,0.00
2013-3-13,77.4,58.2,45.9,53.6,49.3,44.2,95,75,37,29.84,29.75,11,6,13,0.00
2013-3-14,61.7,52.7,46.6,50.0,47.4,44.9,95,82,63,29.85,29.77,18,7,20,0.02
2013-3-15,73.0,55.9,48.6,51.1,48.1,45.6,93,77,46,29.82,29.73,14,6,19,0.00
2013-3-16,67.5,54.6,47.3,51.2,46.9,43.9,94,77,54,29.81,29.72,17,7,22,0.01
2013-3-17,66.2,55.5,49.1,45.9,43.1,36.8,81,64,35,29.83,29.73,21,7,22,0.01
2013-3-18,62.8,51.7,47.5,49.1,44.4,42.6,86,77,53,29.81,29.73,5,3,7,0.00
2013-3-19,66.0,54.9,48.6,50.4,44.3,38.2,87,68,43,29.83,29.75,20,6,20,0.04
2013-3-20,59.9,53.4,49.3,53.6,49.0,44.5,94,85,66,29.83,29.75,21,7,22,0.09
2013-3-21,61.7,52.6,45.1,48.2,42.5,38.9,94,70,49,29.82,29.71,22,7,27,0.08
2013-3-22,64.6,55.4,48.2,43.2,36.9,18.4,79,53,18,29.81,29.72,16,6,19,0.00
2013-3-23,70.7,55.8,48.6,44.3,37.8,19.2,83,55,14,29.82,29.74,20,6,20,0.01
2013-3-24,48.0,48.0,47.7,43.4,43.4,43.1,84,84,84,29.77,29.76,14,5,14,0.00
2013-3-25,48.0,48.0,48.0,43.4,43.4,43.4,84,84,84,29.76,29.76,4,4,8,0.00
2013-3-26,48.0,48.0,48.0,43.4,43.4,43.4,84,84,84,29.76,29.76,4,4,8,0.00
2013-3-27,48.0,48.0,48.0,43.4,43.4,43.4,84,84,84,29.76,29.76,4,4,8,0.00
2013-3-28,48.0,48.0,48.0,43.4,43.4,43.4,84,84,84,29.76,29.76,4,4,8,0.00
2013-3-29,48.0,48.0,48.0,43.4,43.4,43.4,84,84,84,29.76,29.76,4,4,8,0.00
2013-3-30,48.0,48.0,48.0,43.4,43.4,43.4,84,84,84,29.76,29.76,4,4,8,0.00
2013-3-31,48.0,48.0,48.0,43.4,43.4,43.4,84,84,84,29.76,29.76,4,4,8,0.00
2013-4-1,64.8,51.4,48.0,52.3,45.7,43.4,91,81,62,29.95,29.76,18,7,19,1.13
2013-4-2,64.9,54.3,48.4,54.5,49.4,47.3,96,84,63,29.99,29.89,21,8,26,0.05
2013-4-3,76.6,54.8,48.6,53.7,49.2,46.7,95,84,43,29.94,29.79,18,6,22,0.02
2013-4-4,63.3,55.6,49.1,55.1,52.3,47.5,95,89,74,29.91,29.79,23,9,24,0.39
2013-4-5,63.7,57.0,51.6,55.9,52.1,50.2,95,84,65,29.98,29.91,19,8,19,0.07
2013-4-6,64.0,55.0,51.8,54.6,51.9,48.5,96,89,70,29.99,29.93,24,8,24,0.15
2013-4-7,61.3,54.8,50.9,53.7,50.1,45.7,95,84,69,29.97,29.64,31,10,40,1.03
2013-4-8,64.4,54.9,47.7,45.8,38.7,27.4,81,56,29,29.82,29.60,36,14,40,4.87
2013-4-9,78.8,64.3,55.6,45.4,35.6,27.2,50,35,19,29.89,29.83,24,10,25,0.43
2013-4-10,81.0,68.2,60.4,50.5,44.1,38.1,53,42,28,29.97,29.88,12,5,14,0.00
2013-4-11,74.3,58.3,49.3,49.5,46.6,42.7,90,67,33,29.86,29.64,24,7,24,0.00
2013-4-12,61.2,52.5,49.8,48.0,45.3,45.0,84,76,62,29.95,29.66,17,7,17,0.05
2013-4-13,66.6,55.8,48.0,48.4,44.7,42.2,88,68,49,29.96,29.89,15,7,25,0.00
2013-4-14,66.6,53.6,46.9,45.6,40.9,36.0,93,64,33,29.99,29.92,30,10,37,0.39
2013-4-15,56.8,49.6,44.6,46.5,39.8,35.6,95,70,49,30.01,29.92,42,15,49,3.27
2013-4-16,64.0,54.6,46.0,43.1,35.8,29.7,72,51,32,30.22,30.01,21,7,24,0.04
2013-4-17,68.9,58.9,54.5,34.0,28.2,19.7,40,32,16,30.33,30.22,20,11,20,0.39
2013-4-18,66.9,58.9,53.8,45.2,38.1,31.0,63,47,34,30.31,30.27,9,4,10,0.00
2013-4-19,68.2,61.8,49.6,50.1,47.6,43.5,86,61,46,30.28,30.13,16,6,19,0.07
2013-4-20,72.3,63.0,40.8,48.6,46.3,-11.5,82,56,10,30.16,30.04,17,7,21,0.07
2013-4-21,80.2,63.7,51.4,51.8,46.7,41.5,83,57,30,30.10,29.99,14,6,18,0.02
2013-4-22,86.9,68.8,55.4,54.2,45.6,33.0,81,47,15,30.03,29.91,17,6,21,0.04
2013-4-23,73.8,60.9,48.4,48.8,38.2,13.8,92,52,10,30.00,29.92,22,11,27,0.32
2013-4-24,59.0,52.3,47.1,49.3,47.3,44.9,93,84,68,30.01,29.90,20,10,21,0.13
2013-4-25,59.9,54.4,51.3,50.2,48.8,46.3,92,82,67,30.19,30.01,24,9,26,0.02
2013-4-26,60.6,53.0,48.6,49.0,47.1,45.3,91,81,64,30.29,30.18,21,10,27,0.07
2013-4-27,61.2,51.7,47.1,49.9,47.2,45.4,94,86,64,30.29,30.14,21,9,22,0.01
2013-4-28,71.2,59.6,48.6,51.7,48.8,45.8,92,69,46,30.14,29.95,17,7,20,0.00
2013-4-29,80.2,66.4,53.8,54.2,50.1,47.4,79,57,34,29.97,29.83,16,6,20,0.00
2013-4-30,70.3,62.5,52.0,49.6,45.0,18.8,81,56,14,29.92,29.85,20,6,20,0.07
2013-5-1,76.5,66.6,55.4,49.3,34.5,11.9,79,36,10,30.14,29.91,23,10,24,0.70
2013-5-2,92.8,72.8,59.5,52.1,35.9,21.0,68,32,10,30.21,30.14,17,8,21,0.00
2013-5-3,82.9,68.9,56.1,49.6,41.1,27.8,76,40,14,30.14,29.86,21,7,21,0.08
2013-5-4,71.4,61.3,53.8,52.8,48.6,34.1,88,65,33,29.86,29.62,25,9,30,0.86
2013-5-5,69.6,60.3,54.7,52.0,48.8,46.3,77,66,52,29.87,29.67,25,7,25,0.00
2013-5-6,72.0,62.5,56.8,53.7,51.0,47.4,85,68,44,30.03,29.87,20,7,22,0.02
2013-5-7,70.0,60.0,52.7,55.0,52.8,50.9,95,78,54,30.11,30.02,24,8,24,0.02
2013-5-8,59.7,53.6,51.1,51.5,49.8,48.0,95,87,71,30.20,30.10,30,12,30,0.04
2013-5-9,51.8,51.0,50.0,48.7,47.9,46.9,89,89,88,30.20,30.17,24,13,27,0.05
2013-5-10,57.9,52.9,49.6,51.4,49.7,47.8,95,89,78,29.97,29.89,23,11,23,0.21
2013-5-11,69.8,56.4,49.6,57.2,51.0,48.3,96,83,56,29.94,29.83,22,9,23,0.12
2013-5-12,65.8,57.6,50.9,58.1,52.6,49.8,96,84,66,29.93,29.81,20,8,24,0.11
2013-5-13,64.2,56.5,50.7,54.7,51.7,49.3,96,84,67,29.88,29.74,21,9,24,0.12
2013-5-14,66.6,57.0,51.3,51.4,49.1,46.5,92,76,57,29.77,29.71,21,10,27,0.46
2013-5-15,60.6,54.3,49.5,51.6,48.6,46.2,91,82,68,29.82,29.76,36,16,36,1.10
2013-5-16,63.5,55.8,51.8,56.7,51.9,49.5,96,87,67,29.82,29.74,29,13,34,0.26
2013-5-17,61.3,54.9,50.2,50.7,48.6,46.5,93,80,61,29.85,29.75,32,16,35,0.85
2013-5-18,70.0,59.5,49.3,52.6,49.5,46.5,91,71,49,29.91,29.84,17,7,22,0.00
2013-5-19,74.1,62.9,53.4,53.9,48.9,45.5,84,62,36,29.90,29.76,20,6,24,0.01
2013-5-20,81.3,65.1,50.7,54.8,48.7,38.8,90,59,25,29.79,29.70,24,8,24,0.11
2013-5-21,62.4,55.4,50.4,50.5,46.5,39.4,91,73,60,29.77,29.70,33,16,39,0.90
2013-5-22,60.4,54.1,49.3,43.8,37.1,28.3,79,53,33,29.80,29.69,29,12,32,0.28
2013-5-23,63.9,55.5,47.8,46.2,43.3,40.8,81,65,47,29.79,29.69,24,8,30,0.00
2013-5-24,64.0,55.9,48.2,47.8,45.0,42.8,85,68,47,29.79,29.71,24,8,28,0.11
2013-5-25,63.3,54.0,47.5,49.5,46.9,44.1,93,78,55,29.82,29.74,30,12,32,0.51
2013-5-26,61.9,55.6,50.4,53.6,51.2,48.4,97,86,72,29.91,29.83,31,15,34,0.71
2013-5-27,61.7,55.8,51.4,56.6,52.7,49.2,94,89,76,29.91,29.78,21,9,25,0.15
2013-5-28,55.9,55.6,55.2,54.4,54.2,53.5,95,95,94,29.79,29.76,8,6,11,0.00
2013-5-29,55.6,55.6,55.6,54.2,54.2,54.2,95,95,95,29.76,29.76,6,6,9,0.00
2013-5-30,69.3,59.1,55.2,54.2,51.4,46.7,95,78,49,29.97,29.76,19,7,20,0.34
2013-5-31,79.0,62.5,52.2,53.1,48.7,46.2,82,63,33,29.99,29.89,18,6,22,0.04
2013-6-1,79.9,64.7,54.1,52.3,49.0,46.7,79,59,35,29.91,29.76,12,5,17,0.00
2013-6-2,66.9,57.3,51.4,51.3,49.9,48.5,93,77,56,29.77,29.67,18,8,21,0.14
2013-6-3,65.5,56.8,51.6,52.8,50.7,49.0,93,81,62,29.81,29.71,17,7,20,0.04
2013-6-4,63.1,56.6,52.5,53.2,51.3,49.8,93,83,68,30.06,29.94,18,10,22,0.52
2013-6-5,60.8,55.0,51.8,51.8,50.1,48.8,93,84,70,30.09,30.02,18,9,23,0.53
2013-6-6,63.5,55.3,50.5,52.5,50.7,49.2,96,85,65,30.04,29.95,17,9,21,0.35
2013-6-7,73.8,58.9,51.1,57.2,52.7,50.0,96,81,54,29.99,29.82,18,8,23,0.12
2013-6-8,62.1,57.1,52.3,54.4,52.7,50.1,94,85,74,29.89,29.81,30,14,38,15.15
2013-6-9,61.5,56.7,54.3,56.1,54.2,53.2,97,91,79,29.97,29.89,21,11,23,0.34
2013-6-10,68.7,58.8,54.3,53.9,52.6,51.1,94,81,58,30.04,29.89,23,9,24,0.05
2013-6-11,54.9,54.9,54.3,52.3,52.0,51.8,91,90,90,30.03,30.03,11,4,11,0.00
2013-6-25,73.2,65.0,62.1,64.0,61.9,60.9,96,90,73,29.93,29.91,11,6,11,17.50
2013-6-26,76.5,68.5,60.8,64.9,62.2,59.9,98,82,64,30.00,29.93,23,7,23,0.06
2013-6-27,78.4,68.9,59.5,60.5,58.5,56.4,95,71,52,30.03,29.96,15,9,17,0.01
2013-6-28,83.1,67.0,58.3,61.5,57.5,54.8,92,73,45,29.98,29.85,17,8,22,0.26
2013-6-29,81.0,69.0,61.0,57.7,55.8,53.7,81,64,41,29.87,29.75,17,8,23,0.18
2013-6-30,75.2,64.4,56.8,58.3,55.9,53.8,91,75,53,29.80,29.72,17,7,20,0.09
2013-7-1,86.0,64.2,55.0,61.1,55.7,53.5,95,76,42,29.80,29.76,16,7,21,0.13
2013-7-2,75.2,61.2,55.6,59.7,56.4,53.9,98,85,58,29.88,29.77,21,10,26,0.72
2013-7-3,77.0,63.6,55.9,64.5,57.7,55.6,99,83,54,29.87,29.72,18,8,21,0.25
2013-7-4,72.0,64.8,57.0,59.3,56.0,50.9,95,74,57,29.74,29.64,18,9,21,0.37
2013-7-5,65.1,57.7,53.1,53.6,52.2,51.1,94,82,65,29.75,29.66,25,12,27,0.39
2013-7-6,64.8,56.9,53.1,54.2,52.2,51.1,93,85,67,29.76,29.70,21,10,22,0.19
2013-7-7,65.5,58.5,53.6,55.1,53.2,51.0,93,83,68,29.82,29.74,18,10,23,0.37
2013-7-8,65.7,58.2,53.4,55.8,53.4,51.5,97,85,68,29.93,29.81,14,5,15,0.07
2013-7-9,70.2,58.1,51.4,63.7,54.1,51.2,99,88,61,29.98,29.88,9,1,14,0.17
2013-7-10,53.6,53.1,52.7,53.3,52.8,52.4,99,99,99,29.93,29.92,2,0,5,0.00
2013-7-11,60.6,54.3,50.9,53.7,51.8,50.6,99,92,75,29.90,29.84,2,0,2,0.60
2013-7-12,62.1,56.7,53.1,54.1,52.2,50.4,94,85,73,29.90,29.83,2,0,2,0.87
2013-7-13,65.5,58.5,53.1,54.1,52.6,51.2,94,82,65,29.92,29.85,1,0,1,0.38
2013-7-14,61.3,55.2,51.6,54.1,52.2,50.5,98,90,75,29.95,29.85,2,0,2,0.50
2013-7-15,61.7,55.8,50.0,54.6,52.7,49.7,99,90,75,29.88,29.80,2,0,3,0.70
2013-7-16,66.4,58.3,53.2,57.1,54.0,50.4,95,86,67,29.98,29.82,1,0,2,0.02
2013-7-17,67.1,58.8,53.6,56.4,54.4,52.4,96,86,67,30.05,29.97,1,0,2,0.20
2013-7-18,64.6,56.8,52.5,55.8,53.5,52.0,98,89,69,30.02,29.91,2,0,4,0.00
2013-7-19,66.4,57.1,52.5,55.9,53.2,51.4,97,88,68,29.91,29.79,1,0,2,0.00
2013-7-20,65.3,55.5,51.6,54.6,52.3,50.9,99,90,67,29.82,29.71,1,0,3,0.00
2013-7-21,63.3,55.5,51.6,55.3,52.7,51.1,98,91,73,29.83,29.73,1,0,3,0.00
2013-7-22,65.1,57.8,53.1,59.3,55.7,52.5,99,93,76,29.92,29.83,1,0,2,0.00
2013-7-23,70.0,59.4,54.1,59.8,56.0,53.9,99,89,69,29.96,29.89,1,0,1,0.00
2013-7-24,66.2,59.2,53.6,60.6,55.5,53.3,99,88,71,29.95,29.85,2,0,3,0.01
2013-7-25,63.0,55.8,51.8,56.6,53.5,51.5,99,93,75,29.98,29.88,1,0,2,0.00
2013-7-26,64.2,56.5,52.3,57.3,54.4,52.1,99,93,77,30.06,29.96,1,0,2,0.00
2013-7-27,61.3,56.1,52.9,56.4,54.4,52.6,99,94,82,29.99,29.83,1,0,4,0.00
2013-7-28,60.4,55.5,53.1,55.1,53.6,51.9,99,93,80,29.84,29.77,2,0,2,0.00
2013-7-29,64.2,57.7,53.4,55.5,53.5,51.7,95,86,71,29.96,29.80,2,0,7,0.00
2013-7-30,63.7,57.3,52.7,55.3,53.4,51.9,98,87,72,30.06,29.97,0,0,1,0.00
2013-7-31,64.0,57.1,52.0,55.1,53.5,51.4,99,88,71,30.05,29.95,0,0,1,0.00
2013-8-1,63.7,57.8,53.6,55.1,53.5,52.1,95,86,72,30.02,29.92,0,0,4,0.00
2013-8-2,64.2,57.5,51.8,55.1,53.1,51.2,98,86,69,29.94,29.85,1,0,5,0.00
2013-8-3,63.7,56.1,51.6,55.1,53.0,51.1,99,90,73,29.93,29.86,1,0,2,0.00
2013-8-4,61.9,55.4,51.8,54.2,52.9,51.5,99,92,73,29.96,29.91,1,0,1,0.00
2013-8-5,61.0,55.5,51.8,54.0,52.9,51.2,98,91,76,29.98,29.90,0,0,1,0.00
2013-8-6,63.5,57.5,52.7,56.7,53.8,51.6,97,88,71,30.00,29.93,0,0,1,0.00
2013-8-7,67.6,59.9,55.0,57.3,55.7,53.9,97,87,67,30.06,29.99,0,0,4,0.00
2013-8-8,67.6,59.6,56.7,58.5,56.8,55.5,99,91,66,29.99,29.94,0,0,1,0.02
2013-8-9,65.5,57.6,53.8,57.3,54.9,52.7,99,91,73,29.95,29.88,0,0,0,0.01
2013-8-10,66.0,59.0,55.6,57.7,56.1,54.3,99,91,72,30.01,29.94,0,0,0,0.00
2013-8-11,62.2,56.3,53.8,56.6,54.9,53.5,99,95,79,29.98,29.90,0,0,2,0.00
2013-8-12,67.5,58.0,53.8,58.5,55.3,53.5,99,92,70,29.96,29.90,0,0,1,0.00
2013-8-13,75.7,61.9,55.2,60.2,55.4,53.0,96,81,53,29.94,29.87,2,0,2,0.00
2013-8-14,68.9,60.9,53.8,60.9,56.9,53.0,98,87,69,29.93,29.85,2,0,3,0.00
2013-8-15,70.7,62.9,58.6,64.1,60.7,58.4,99,93,78,29.92,29.86,0,0,2,0.00
2013-8-16,68.0,61.4,57.0,62.7,58.8,56.4,99,92,76,29.94,29.89,0,0,2,0.01
2013-8-17,71.1,61.6,55.9,61.0,57.3,54.7,97,86,69,29.94,29.82,0,0,1,0.00
2013-8-18,74.7,63.9,56.5,61.7,57.7,55.4,97,81,63,29.83,29.73,0,0,1,0.00
2013-8-19,68.9,61.0,54.7,58.8,57.4,54.4,99,89,69,29.85,29.74,0,0,4,0.00
2013-8-20,70.0,61.4,56.3,60.7,57.4,55.6,99,88,67,29.84,29.77,0,0,2,0.00
2013-8-21,68.0,60.8,56.5,57.2,55.7,54.6,95,84,66,29.89,29.81,0,0,3,0.00
2013-8-22,66.6,60.3,57.0,56.4,55.1,54.0,92,84,68,29.93,29.83,2,0,4,0.00
2013-8-23,63.9,58.7,55.0,56.5,55.3,53.4,95,88,77,29.88,29.76,1,0,4,0.00
2013-8-24,68.0,60.7,54.7,61.1,57.1,54.4,99,88,70,29.85,29.78,1,0,1,0.00
2013-8-25,73.0,64.7,59.2,65.6,60.9,58.0,99,88,71,29.90,29.84,0,0,1,0.00
2013-8-26,69.1,62.2,57.7,59.5,57.7,56.2,97,86,65,29.96,29.85,0,0,1,0.00
2013-8-27,68.9,61.4,55.2,61.0,57.6,54.4,99,88,69,29.85,29.77,0,0,1,0.00
2013-8-28,61.9,58.1,56.1,61.6,57.8,55.9,99,99,99,29.88,29.80,0,0,0,0.04
2013-8-29,74.3,64.2,58.8,64.7,61.3,58.5,99,91,68,30.01,29.89,0,0,0,0.01
2013-8-30,81.0,67.3,59.4,64.5,60.7,58.1,99,81,52,29.99,29.87,1,0,1,0.00
2013-8-31,68.0,60.3,55.8,60.5,57.9,55.4,99,92,76,29.92,29.84,0,0,0,0.00
2013-9-1,69.6,62.6,55.4,62.5,59.4,55.1,99,90,72,29.90,29.83,0,0,1,0.00
2013-9-2,74.7,64.9,59.9,63.7,61.8,59.6,99,90,68,29.91,29.82,0,0,1,0.00
2013-9-3,71.1,62.4,58.6,62.4,59.0,56.5,99,90,60,29.95,29.88,0,0,1,0.00
2013-9-4,72.1,63.7,58.5,62.1,60.0,58.2,99,89,66,29.98,29.88,0,0,0,0.00
2013-9-5,70.7,64.6,57.6,60.0,58.3,55.8,99,81,66,29.95,29.89,0,0,1,0.00
2013-9-6,84.4,71.8,59.4,62.2,54.2,46.3,93,58,32,29.93,29.77,0,0,0,0.00
2013-9-7,88.9,72.5,55.8,62.0,56.0,45.9,99,60,33,29.82,29.75,0,0,1,0.00
2013-9-8,71.8,60.0,54.1,64.1,56.8,53.9,99,90,67,29.82,29.71,0,0,1,0.01
2013-9-9,75.0,60.3,52.7,63.8,57.0,52.4,99,90,60,29.76,29.66,0,0,1,0.02
2013-9-10,70.9,62.8,56.3,65.4,59.3,56.0,99,89,70,29.84,29.69,0,0,1,0.02
2013-9-11,72.1,64.8,61.2,60.5,59.1,57.9,92,82,63,29.94,29.84,0,0,0,0.00
2013-9-12,71.1,62.5,57.4,61.6,59.7,57.1,99,91,68,29.93,29.83,1,0,1,0.00
2013-9-13,66.0,57.4,55.2,58.6,56.3,54.9,99,96,77,29.86,29.80,0,0,0,0.00
2013-9-14,66.2,59.9,54.0,58.8,56.6,53.7,99,89,75,29.77,29.69,0,0,1,0.00
2013-9-15,61.3,57.1,55.6,56.2,55.2,54.3,98,94,82,29.80,29.72,1,0,1,0.00
2013-9-16,72.0,61.8,56.7,59.9,57.8,56.1,99,88,63,29.85,29.73,1,0,2,0.00
2013-9-17,61.5,57.9,56.5,58.6,57.0,56.1,99,97,84,29.81,29.76,0,0,2,0.00
2013-9-18,76.1,65.2,58.6,57.9,52.5,48.1,88,66,39,29.86,29.76,1,0,1,0.00
2013-9-21,59.4,59.4,59.4,58.2,58.2,58.2,96,96,96,29.78,29.78,0,0,0,0.00
2013-9-22,70.3,63.6,54.9,57.7,55.3,53.4,99,76,57,29.94,29.84,0,0,1,0.00
2013-9-23,80.4,66.4,59.0,61.2,57.0,51.8,97,74,42,29.98,29.89,0,0,0,0.00
2013-9-24,67.1,61.9,57.2,57.9,54.7,47.3,90,78,61,29.95,29.86,0,0,0,0.01
2013-9-25,67.6,60.2,55.9,51.1,48.2,43.5,83,65,50,29.89,29.78,0,0,0,0.00
2013-9-26,66.6,59.3,55.6,46.8,42.3,38.1,64,54,35,29.89,29.80,0,0,0,0.00
2013-9-27,81.0,66.8,56.7,50.6,41.6,30.5,80,43,16,30.05,29.95,0,0,0,0.00
2013-9-28,69.8,60.4,57.2,53.6,51.0,43.7,80,72,54,30.03,29.98,0,0,0,0.00
2013-11-6,66.6,64.1,62.2,37.4,35.4,33.1,38,34,10,30.14,30.11,1,0,1,0.00
2013-11-7,76.5,61.5,53.6,53.3,42.4,31.4,97,54,21,30.12,30.03,2,0,2,0.00
2013-11-8,75.4,58.0,51.3,55.0,50.5,43.9,99,79,38,30.04,29.91,1,0,1,0.00
2013-11-9,72.9,56.3,49.5,52.3,49.6,42.4,98,82,35,30.00,29.93,5,0,5,0.00
2013-11-10,66.9,55.3,50.9,53.0,51.0,48.8,98,86,56,30.08,29.98,2,0,2,0.00
2013-11-11,67.3,57.0,34.0,54.3,50.5,23.1,94,80,52,30.12,30.03,1,0,1,0.00
2013-11-12,70.3,61.4,34.0,54.8,49.8,23.1,93,67,45,30.22,30.11,1,0,1,0.00
2013-11-13,75.2,58.4,51.3,58.6,53.2,49.2,99,85,46,30.21,30.06,3,0,3,0.00
2013-11-14,63.1,54.4,51.1,57.5,51.1,44.0,99,89,69,30.07,29.84,1,0,1,0.01
2013-11-15,65.8,55.3,50.4,51.3,45.8,37.5,95,72,40,29.83,29.68,5,0,5,0.00
2013-11-16,65.7,54.3,48.7,52.4,47.8,38.4,99,81,39,29.88,29.72,2,0,2,0.00
2013-11-17,65.5,54.2,49.6,52.0,48.5,43.6,99,83,48,30.05,29.87,2,0,2,0.00
2013-11-18,60.4,52.4,35.4,50.7,46.2,8.5,98,81,32,30.11,30.03,14,1,14,0.00
2013-11-19,59.4,55.5,52.7,57.1,53.3,21.7,99,92,29,30.06,29.90,1,0,1,0.48
2013-11-20,59.4,55.3,50.7,58.7,55.0,50.3,99,99,95,29.90,29.79,2,0,2,0.77
2013-11-21,62.6,55.9,50.4,53.3,35.2,16.2,99,55,18,29.93,29.85,1,0,1,0.00
2013-11-22,72.0,62.1,55.2,22.0,11.0,2.4,26,14,10,29.97,29.86,1,0,1,0.00
2013-11-23,72.9,58.8,52.5,53.1,27.2,6.3,96,40,10,30.05,29.91,1,0,1,0.00
2013-11-24,68.7,55.2,32.0,52.1,45.8,24.4,99,73,39,30.20,30.05,12,0,12,0.00
2013-11-25,67.8,55.1,47.3,48.5,45.4,41.1,99,72,41,30.27,30.19,1,0,1,0.00
2013-11-26,66.2,55.4,49.6,47.3,43.3,33.6,86,66,31,30.22,29.99,2,0,2,0.00
2013-11-27,67.3,56.8,50.5,47.1,44.5,40.0,84,65,39,29.99,29.80,1,0,1,0.00
2013-11-28,72.7,59.3,52.9,45.6,42.1,36.4,73,54,29,30.03,29.82,2,0,2,0.00
2013-11-29,75.6,58.6,50.9,56.9,48.2,38.0,97,71,28,30.17,30.02,1,0,1,0.00
2013-11-30,68.9,55.4,49.5,55.5,49.3,9.1,99,82,16,30.22,30.15,0,0,0,0.07
2013-12-1,68.9,58.5,50.2,52.3,47.9,39.4,99,71,39,30.29,30.17,1,0,2,0.00
2013-12-2,63.9,54.5,48.9,55.9,51.9,47.5,99,91,65,30.18,29.92,5,0,5,0.00
2013-12-3,54.9,50.7,47.5,54.6,36.8,16.5,99,61,25,29.92,29.81,24,0,24,0.01
2013-12-4,59.7,47.2,42.4,32.8,22.4,7.9,61,39,15,30.03,29.89,1,0,1,0.00
2013-12-5,57.4,45.0,39.4,33.8,23.4,-1.2,69,47,10,30.10,30.02,0,0,0,0.00
2013-12-6,54.9,46.8,40.6,51.2,38.8,31.6,99,75,45,30.13,29.85,3,0,3,0.24
2013-12-7,50.9,44.1,39.4,48.1,29.1,18.8,99,57,32,30.19,29.87,2,0,2,0.01
2013-12-8,50.0,41.2,36.1,33.1,22.6,11.8,86,51,25,30.26,30.17,1,0,1,0.00
2013-12-9,53.2,43.7,35.1,31.3,14.7,-4.4,68,35,10,30.35,30.25,1,0,1,0.00
2013-12-10,59.7,46.7,39.7,33.8,28.1,15.1,73,51,18,30.34,30.15,0,0,0,0.00
2013-12-11,59.5,48.8,41.4,39.1,31.2,14.7,86,54,19,30.18,30.12,0,0,0,0.00
2013-12-12,65.5,50.9,43.9,46.3,37.1,26.4,92,62,24,30.21,30.12,1,0,1,0.00
2013-12-13,63.1,50.3,43.5,49.7,43.2,30.4,99,80,37,30.28,30.17,1,0,1,0.00
2013-12-14,66.0,52.0,43.9,47.6,38.8,28.9,99,65,26,30.34,30.25,1,0,1,0.00
2013-12-15,62.1,53.1,46.2,44.4,38.2,33.0,92,59,36,30.31,30.18,1,0,1,0.00
2013-12-16,73.8,58.5,50.5,41.3,33.4,18.8,70,41,13,30.19,30.07,1,0,1,0.00
2013-12-17,63.3,58.7,50.4,40.1,37.8,34.5,64,47,38,30.12,30.07,2,0,2,0.00
2013-12-18,63.3,63.3,63.3,37.3,37.3,37.3,38,38,38,30.07,30.07,0,0,0,0.00
2013-12-19,63.3,58.5,50.9,38.7,31.3,11.2,57,36,18,30.07,0.00,3,0,3,0.00
2013-12-20,66.9,54.3,47.1,45.6,25.9,-3.8,82,37,10,0.00,0.00,1,0,1,0.00
2013-12-21,63.9,54.2,47.8,51.3,46.8,40.9,94,77,56,0.00,0.00,1,0,1,0.00
2013-12-22,70.5,56.6,47.1,53.8,40.9,33.4,99,61,27,0.00,0.00,2,0,2,0.00
2013-12-23,64.4,54.8,47.3,46.5,40.0,35.2,88,59,35,0.00,0.00,2,0,2,0.00
2013-12-24,77.2,57.8,47.5,46.7,40.3,32.0,86,54,21,30.00,0.00,2,0,2,0.00
2013-12-25,70.3,57.6,50.0,41.8,38.2,34.0,68,49,28,0.00,0.00,5,0,5,0.00
2013-12-26,72.7,56.9,47.7,44.4,37.1,25.7,84,51,18,0.00,0.00,2,0,2,0.00
2013-12-27,65.1,53.9,48.0,43.1,38.2,34.5,80,56,32,0.00,0.00,3,0,4,0.00
2013-12-28,71.6,55.7,45.5,40.1,34.0,15.4,77,47,13,0.00,0.00,2,0,2,0.00
2013-12-29,68.7,59.1,51.8,36.1,20.0,-13.6,54,25,10,0.00,0.00,1,0,1,0.00
2013-12-30,67.3,53.4,47.8,50.8,40.1,31.4,99,64,30,0.00,0.00,3,0,3,0.00
2013-12-31,62.4,51.8,45.5,48.7,42.4,32.5,99,73,36,0.00,0.00,2,0,2,0.00
2014-1-1,66.4,54.0,44.4,46.6,39.7,25.5,99,63,28,0.00,0.00,2,0,2,0.00
2014-1-2,68.5,56.8,48.9,39.2,34.4,28.6,65,44,23,33.70,0.00,4,0,4,0.00